Regional Weather Roundup
Issued by NWS

Home | Current Version | Previous Version | Text Only | Print | Product List | Glossary Off
Versions: 1 2 3 4 5 6 7 8 9 10 11 12 13 14 15 16 17 18 19 20 21 22 23 24 25 26 27 28 29 30 31 32 33 34 35 36 37 38 39 40 41 42 43 44 45 46 47 48 49 50

000
ASUS43 KLOT 290812
RWRIL

ILLINOIS REGIONAL WEATHER ROUNDUP
NATIONAL WEATHER SERVICE CHICAGO/ROMEOVILLE IL
300 AM CDT SAT AUG 29 2015

NOTE: "FAIR" INDICATES FEW OR NO CLOUDS BELOW 12,000 FEET WITH NO
SIGNIFICANT WEATHER AND/OR OBSTRUCTIONS TO VISIBILITY.

* THESE STATIONS ARE NOT UNDER NWS QUALITY CONTROL. THEY ALSO MAY NOT
  REPORT WEATHER SUCH AS PRECIPITATION OR FOG.

ILZ001-002-007-009-015-016-024-290900-
NORTHWEST ILLINOIS

CITY           SKY/WX    TMP DP  RH WIND       PRES   REMARKS
MOLINE         CLOUDY    67  62  84 SE9       29.95F
STERLING*      CLOUDY    64  61  88 SE3       29.99F
SAVANNA*       LGT RAIN  65  62  91 SE12G18   29.96F
$$

ILZ003-004-008-010-011-017-018-290900-
NORTH CENTRAL ILLINOIS

CITY           SKY/WX    TMP DP  RH WIND       PRES   REMARKS
ROCKFORD       RAIN      65  61  87 SE10      30.04F
FREEPORT*      RAIN      63  62  96 SE8       30.02R
ROCHELLE*      RAIN      64  62  94 S10       30.03F
DE KALB*       LGT RAIN  64  62  95 SE9       30.04F
PERU*          RAIN      66  60  80 SE7       30.03F
$$

ILZ005-006-012>014-019>023-290900-
NORTHEAST ILLINOIS

CITY           SKY/WX    TMP DP  RH WIND       PRES   REMARKS
CHICAGO-OHARE  CLOUDY    67  60  78 SE6       30.04F
CHICAGO-MIDWAY CLOUDY    70  58  65 SE6       30.05F
AURORA         LGT RAIN  65  61  87 SE7       30.05F
LANSING*       MOCLDY    64  59  81 CALM      30.06F
JOLIET*        CLOUDY    67  62  83 CALM      30.04F
WAUKEGAN       LGT RAIN  65  63  93 SE8       30.04F
DUPAGE AIRPORT LGT RAIN  66  60  81 SE8       30.04F
KANKAKEE*      CLOUDY    64  61  91 CALM      30.06F
WHEELING       CLOUDY    68  62  81 SE5       30.06F
MORRIS*        LGT RAIN  64  62  91 E5        30.03F
ROMEOVILLE*    CLOUDY    65  59  81 SE6       30.05F
NORTHERLY ISL    N/A     64  59  83 SE5         N/A
$$

LMZ740>746-290900-
SOUTHERN LAKE MICHIGAN

STATION/POSITION SKY/WX   TEMP    WIND        PRES    VSBY  WAVE
                          AIR SEA DIR/SP/G                  HT/PER
                          (F)     (DEG/KT/KT) (MB)    (MI)  (FT/S)
SOUTHERN BUOY              68 68  100/ 10/ 12 1018.1F
WILMETTE HARBOR            60 56  300/  6/  8   N/A           1/ 3
HARRISON CRIB              67     170/  7/  9   N/A
BURNHAM HARBOR             64     140/  3/  5   N/A
BURNS HARBOR               70     160/  9/ 14 1019.0S
MICHIGAN CITY              67     120/  5/  6   N/A
MICHIGAN CITY 6N           68 71  160/ 10/ 12   N/A           1
ST. JOSEPH                 69 72  190/ 10/ 12   N/A           1
$$

ILZ025>027-034>036-040-047-049-050-058-095>099-290900-
WEST-CENTRAL ILLINOIS

CITY           SKY/WX    TMP DP  RH WIND       PRES   REMARKS
QUINCY         CLOUDY    68  63  84 S8        29.98F
GALESBURG*     CLOUDY    66  62  86 S8        29.98F
MACOMB*        LGT RAIN  67  64  90 S6        30.01F
JACKSONVILLE*  CLOUDY    71  64  78 SE7       30.01F
PITTSFIELD*    CLOUDY    69  63  82 S6        30.01F
$$

ILZ028>032-037-038-041>044-048-051>054-059>061-290900-
CENTRAL ILLINOIS

CITY           SKY/WX    TMP DP  RH WIND       PRES   REMARKS
PONTIAC        CLOUDY    65  63  91 SE6       30.04F
BLOOMINGTON    CLOUDY    65  62  90 S7        30.05F
DECATUR        CLOUDY    65  60  84 CALM      30.05S
PEORIA         LGT RAIN  68  61  78 S7        30.01F
LACON*         CLOUDY    65  60  84 S3        30.00F
LINCOLN*       LGT RAIN  67  61  80 CALM      30.03F
SPRINGFIELD    LGT RAIN  68  64  87 S8        30.03F
TAYLORVILLE    LGT RAIN  64  63  94 E5        30.03F
$$

ILZ033-039-045-046-055>057-062-063-290900-
EAST-CENTRAL ILLINOIS

CITY           SKY/WX    TMP DP  RH WIND       PRES   REMARKS
CHAMPAIGN      MOCLDY    66  60  81 SE5       30.06F
RANTOUL*       CLOUDY    65  62  88 CALM      30.06F
MATTOON        HAZE      66  59  78 S5        30.05S VSB 1/2
PARIS*         CLOUDY    62  60  93 CALM      30.08S
$$

ILZ079-100>102-290900-
SOUTHWEST ILLINOIS

CITY           SKY/WX    TMP DP  RH WIND       PRES   REMARKS
ALTON          CLOUDY    67  64  91 CALM      30.03F
BELLEVILLE     CLOUDY    68  66  94 W2        30.02S
CAHOKIA*       CLOUDY    69  63  81 SE3       30.03S
SPARTA*        CLOUDY    68  65  90 CALM      30.04R
$$

ILZ064>066-069>071-074>076-080>082-084>086-088>090-092>094-290900-
SOUTH-CENTRAL ILLINOIS

CITY           SKY/WX    TMP DP  RH WIND       PRES   REMARKS
CARBONDALE     CLOUDY    69  65  86 SE6       30.02F
CAIRO*         CLOUDY    69  69  97 S3        30.02F
EFFINGHAM*     CLOUDY    67  61  80 E3        30.06S
MARION         CLOUDY    72  66  83 CALM      30.04S
MT. VERNON     CLOUDY    66  61  82 CALM      30.05S
SALEM*         CLOUDY    71  63  76 CALM      30.03S
METROPOLIS*    CLOUDY    67  67 100 CALM      30.04F FOG
$$

ILZ067-068-072-073-078-083-087-091-290900-
SOUTHEAST ILLINOIS

CITY           SKY/WX    TMP DP  RH WIND       PRES   REMARKS
LAWRENCEVILLE  CLOUDY    68  62  81 CALM      30.05S
FLORA*         CLOUDY    65  62  89 CALM      30.05S
FAIRFIELD*     CLOUDY    67  64  90 CALM      30.03S
HARRISBURG*    CLOUDY    67  65  93 CALM      30.04S
ROBINSON*      CLOUDY    63  61  94 CALM      30.07S
CARMI*         CLOUDY    65  64  97 CALM      30.04S
$$

ABBREVIATIONS USED IN REMARKS
   TC - TEMPERATURE IN CELSIUS
  WCI - WIND CHILL INDEX
   HX - HEAT INDEX
  VSB - VISIBILITY
$$



USA.gov is the U.S. government's official web portal to all federal, state and local government web resources and services.